TimeEDT,TemperatureF,Dew PointF,Humidity,Sea Level PressureIn,VisibilityMPH,Wind Direction,Wind SpeedMPH,Gust SpeedMPH,PrecipitationIn,Events,Conditions,WindDirDegrees,DateUTC
12:53 AM,75.9,72.0,87,29.90,9.0,Calm,Calm,-,N/A,,Clear,0,2013-07-20 04:53:00
1:53 AM,75.0,72.0,90,29.91,7.0,Calm,Calm,-,N/A,,Clear,0,2013-07-20 05:53:00
2:53 AM,75.0,72.0,90,29.91,8.0,SSW,4.6,-,N/A,,Clear,210,2013-07-20 06:53:00
3:53 AM,75.0,72.0,90,29.90,8.0,South,4.6,-,N/A,,Clear,190,2013-07-20 07:53:00
4:53 AM,75.0,72.0,90,29.88,8.0,SSW,4.6,-,N/A,,Clear,210,2013-07-20 08:53:00
5:53 AM,75.0,71.1,87,29.90,9.0,SSW,4.6,-,N/A,,Mostly Cloudy,200,2013-07-20 09:53:00
6:53 AM,75.0,72.0,90,29.91,8.0,WSW,8.1,-,N/A,,Mostly Cloudy,240,2013-07-20 10:53:00
7:53 AM,75.9,72.0,87,29.92,8.0,South,3.5,-,N/A,,Mostly Cloudy,190,2013-07-20 11:53:00
8:53 AM,79.0,72.0,79,29.92,10.0,SSW,5.8,-,N/A,,Mostly Cloudy,200,2013-07-20 12:53:00
9:53 AM,81.0,73.0,77,29.93,10.0,SSW,8.1,-,N/A,,Scattered Clouds,200,2013-07-20 13:53:00
10:53 AM,82.9,73.0,72,29.94,10.0,South,6.9,-,N/A,,Scattered Clouds,190,2013-07-20 14:53:00
11:53 AM,87.1,71.1,59,29.92,10.0,Variable,5.8,-,N/A,,Clear,0,2013-07-20 15:53:00
12:53 PM,88.0,71.1,57,29.90,8.0,SW,6.9,-,N/A,,Partly Cloudy,220,2013-07-20 16:53:00
1:53 PM,89.1,71.1,55,29.89,10.0,SSW,10.4,-,N/A,,Partly Cloudy,210,2013-07-20 17:53:00
2:53 PM,91.0,71.1,52,29.87,10.0,SW,6.9,-,N/A,,Clear,220,2013-07-20 18:53:00
3:53 PM,91.0,71.1,52,29.86,10.0,SSW,8.1,17.3,N/A,,Clear,200,2013-07-20 19:53:00
4:08 PM,89.6,71.6,55,29.87,10.0,SSW,9.2,-,N/A,Thunderstorm,Clear,200,2013-07-20 20:08:00
4:23 PM,87.8,71.6,58,29.87,10.0,SSW,10.4,-,N/A,,Clear,200,2013-07-20 20:23:00
4:53 PM,82.9,69.1,63,29.84,10.0,SSW,5.8,-,N/A,,Scattered Clouds,200,2013-07-20 20:53:00
5:21 PM,82.4,69.8,66,29.88,10.0,Variable,5.8,-,0.00,Rain-Thunderstorm,Light Rain,0,2013-07-20 21:21:00
5:40 PM,80.6,69.8,70,29.88,10.0,Variable,6.9,16.1,0.00,,Clear,0,2013-07-20 21:40:00
5:53 PM,82.9,69.1,63,29.85,10.0,Variable,6.9,-,0.00,,Clear,0,2013-07-20 21:53:00
6:53 PM,80.1,66.9,64,29.87,10.0,SSW,4.6,-,N/A,,Clear,210,2013-07-20 22:53:00
7:53 PM,79.0,68.0,69,29.87,10.0,SSW,5.8,-,N/A,,Clear,210,2013-07-20 23:53:00
8:53 PM,77.0,69.1,76,29.87,10.0,SSW,6.9,-,N/A,,Clear,210,2013-07-21 00:53:00
9:53 PM,77.0,70.0,79,29.87,10.0,SW,5.8,-,N/A,,Clear,220,2013-07-21 01:53:00
10:53 PM,77.0,70.0,79,29.88,10.0,Calm,Calm,-,N/A,,Clear,0,2013-07-21 02:53:00
11:53 PM,75.9,69.1,79,29.90,10.0,Calm,Calm,-,N/A,,Clear,0,2013-07-21 03:53:00